Port Huron, MI

9:59 AM EDT on July 21, 2017 (GMT -0400)
Saint Clair County International

Weather History for KPHN - April, 2014

Change the Weather History Date:

Monday, April 21, 2014

  Actual Average (KMTC) Record (KMTC)
Temperature  
Mean Temperature 58 °F -  
Max Temperature 77 °F 59 °F 83 °F (1985)
Min Temperature 39 °F 39 °F 24 °F (1981)
Degree Days  
Heating Degree Days 7    
Growing Degree Days 8 (Base 50)    
Moisture  
Dew Point 41 °F    
Average Humidity 56    
Maximum Humidity 93    
Minimum Humidity 31    
Precipitation  
Precipitation 0.00 in - - ()
Sea Level Pressure  
Sea Level Pressure 29.92 in    
Wind  
Wind Speed 4 mph (SSW)    
Max Wind Speed 17 mph    
Max Gust Speed 22 mph    
Visibility 10 miles    
Events Rain    
Averages and records for this station are not official NWS values.
T = Trace of Precipitation, MM = Missing Value Source: NWS Daily Summary

Daily Weather History Graph

Daily Weather History Graph

Search for Another Location

Airport or City:

Trip Planner

Search our weather history database for the weather conditions in past years. The results will help you decide how hot, cold, wet, or windy it might be!

Date:

Astronomy

Apr. 21, 2014 Rise Set
Actual Time 6:38 AM EDT 8:19 PM EDT
Civil Twilight 6:08 AM EDT 8:49 PM EDT
Nautical Twilight 5:32 AM EDT 9:26 PM EDT
Astronomical Twilight 4:53 AM EDT 10:05 PM EDT
Moon 1:50 AM EDT 12:02 PM EDT
Length of Visible Light 14h 40m
Length of Day
13h 40m
Waning Gibbous, 58% of the Moon is Illuminated
Apr 21
Waning Gibbous
Apr 22
Last Quarter
Apr 29
New
May 6
First Quarter
May 14
Full

Hourly Weather History & Observations

Time (EDT) Temp. Windchill Dew Point Humidity Pressure Visibility Wind Dir Wind Speed Gust Speed Precip Events Conditions
12:17 AM 46.4 °F 43.5 °F 35.6 °F 66% 30.11 in 10.0 mi South 5.8 mph - N/A   Clear
12:37 AM 46.4 °F 45.2 °F 33.8 °F 62% 30.11 in 10.0 mi South 3.5 mph - N/A   Clear
12:57 AM 46.4 °F 44.3 °F 35.6 °F 66% 30.11 in 10.0 mi South 4.6 mph - N/A   Clear
1:17 AM 46.4 °F - 33.8 °F 62% 30.10 in 10.0 mi Calm Calm - N/A   Clear
1:37 AM 46.4 °F - 35.6 °F 66% 30.10 in 10.0 mi Calm Calm - N/A   Clear
1:57 AM 44.6 °F - 35.6 °F 71% 30.09 in 10.0 mi Calm Calm - N/A   Clear
2:17 AM 42.8 °F - 37.4 °F 81% 30.09 in 10.0 mi Calm Calm - N/A   Clear
2:37 AM 41.0 °F - 37.4 °F 87% 30.08 in 10.0 mi Calm Calm - N/A   Clear
2:57 AM 39.2 °F - 35.6 °F 87% 30.08 in 10.0 mi Calm Calm - N/A   Clear
3:17 AM 39.2 °F - 35.6 °F 87% 30.07 in 10.0 mi Calm Calm - N/A   Clear
3:37 AM 39.2 °F - 35.6 °F 87% 30.06 in 10.0 mi Calm Calm - N/A   Clear
3:57 AM 39.2 °F - 35.6 °F 87% 30.06 in 10.0 mi Calm Calm - N/A   Scattered Clouds
4:17 AM 39.2 °F - 35.6 °F 87% 30.06 in 10.0 mi Calm Calm - N/A   Mostly Cloudy
4:37 AM 39.2 °F - 37.4 °F 93% 30.05 in 10.0 mi Calm Calm - N/A   Overcast
4:57 AM 41.0 °F - 37.4 °F 87% 30.04 in 10.0 mi Calm Calm - N/A   Mostly Cloudy
5:17 AM 41.0 °F - 37.4 °F 87% 30.04 in 10.0 mi Calm Calm - N/A   Scattered Clouds
5:37 AM 39.2 °F - 37.4 °F 93% 30.04 in 10.0 mi Calm Calm - N/A   Clear
5:57 AM 39.2 °F - 35.6 °F 87% 30.04 in 10.0 mi Calm Calm - N/A   Clear
6:17 AM 39.2 °F - 37.4 °F 93% 30.04 in 10.0 mi Calm Calm - N/A   Clear
6:37 AM 39.2 °F - 37.4 °F 93% 30.03 in 10.0 mi Calm Calm - N/A   Mostly Cloudy
6:57 AM 39.2 °F - 37.4 °F 93% 30.03 in 10.0 mi Calm Calm - N/A   Overcast
7:17 AM 42.8 °F - 39.2 °F 87% 30.03 in 10.0 mi Calm Calm - N/A   Overcast
7:37 AM 42.8 °F - 41.0 °F 93% 30.03 in 10.0 mi Calm Calm - N/A   Overcast
7:57 AM 46.4 °F 45.2 °F 39.2 °F 76% 30.02 in 10.0 mi South 3.5 mph - N/A   Overcast
8:17 AM 48.2 °F - 39.2 °F 71% 30.02 in 10.0 mi SSW 3.5 mph - N/A   Overcast
8:37 AM 50.0 °F - 39.2 °F 66% 30.02 in 10.0 mi South 3.5 mph - N/A   Scattered Clouds
8:57 AM 51.8 °F - 39.2 °F 62% 30.02 in 10.0 mi SSW 4.6 mph - N/A   Scattered Clouds
9:17 AM 55.4 °F - 39.2 °F 54% 30.00 in 10.0 mi SSW 5.8 mph - N/A   Clear
9:37 AM 57.2 °F - 39.2 °F 51% 30.00 in 10.0 mi South 5.8 mph - N/A   Clear
9:57 AM 60.8 °F - 39.2 °F 45% 29.99 in 10.0 mi SSW 4.6 mph - N/A   Clear
10:17 AM 62.6 °F - 39.2 °F 42% 29.98 in 10.0 mi South 4.6 mph - N/A   Clear
10:37 AM 64.4 °F - 41.0 °F 42% 29.97 in 10.0 mi South 4.6 mph - N/A   Clear
10:57 AM 66.2 °F - 41.0 °F 40% 29.96 in 10.0 mi SSW 5.8 mph - N/A   Clear
11:17 AM 68.0 °F - 41.0 °F 37% 29.96 in 10.0 mi South 6.9 mph - N/A   Clear
11:37 AM 69.8 °F - 41.0 °F 35% 29.94 in 10.0 mi SSW 10.4 mph - N/A   Clear
11:57 AM 71.6 °F - 41.0 °F 33% 29.94 in 10.0 mi SSW 10.4 mph - N/A   Clear
12:17 PM 73.4 °F - 41.0 °F 31% 29.93 in 10.0 mi South 6.9 mph - N/A   Clear
12:37 PM 71.6 °F - 41.0 °F 33% 29.92 in 10.0 mi SSW 6.9 mph - N/A   Clear
12:57 PM 71.6 °F - 41.0 °F 33% 29.91 in 10.0 mi SSW 6.9 mph - N/A   Clear
1:17 PM 73.4 °F - 42.8 °F 33% 29.91 in 10.0 mi SSW 10.4 mph - N/A   Clear
1:37 PM 73.4 °F - 44.6 °F 36% 29.90 in 10.0 mi SSW 10.4 mph 16.1 mph N/A   Clear
1:57 PM 75.2 °F - 44.6 °F 34% 29.89 in 10.0 mi SSW 10.4 mph - N/A   Clear
2:17 PM 75.2 °F - 44.6 °F 34% 29.88 in 10.0 mi South 12.7 mph 17.3 mph N/A   Clear
2:37 PM 75.2 °F - 44.6 °F 34% 29.87 in 10.0 mi South 13.8 mph - N/A   Clear
2:57 PM 77.0 °F - 44.6 °F 32% 29.86 in 10.0 mi SW 6.9 mph - N/A   Clear
3:17 PM 75.2 °F - 42.8 °F 31% 29.85 in 10.0 mi SSW 11.5 mph 18.4 mph N/A   Clear
3:37 PM 75.2 °F - 44.6 °F 34% 29.84 in 10.0 mi SSW 16.1 mph 19.6 mph N/A   Clear
3:57 PM 75.2 °F - 44.6 °F 34% 29.83 in 10.0 mi SSW 13.8 mph 18.4 mph N/A   Clear
4:17 PM 73.4 °F - 44.6 °F 36% 29.83 in 10.0 mi South 13.8 mph - N/A   Clear
4:37 PM 73.4 °F - 44.6 °F 36% 29.82 in 10.0 mi South 11.5 mph - N/A   Clear
4:57 PM 71.6 °F - 44.6 °F 38% 29.81 in 10.0 mi South 11.5 mph - N/A   Clear
5:17 PM 73.4 °F - 42.8 °F 33% 29.80 in 10.0 mi South 11.5 mph 19.6 mph N/A   Clear
5:37 PM 73.4 °F - 42.8 °F 33% 29.79 in 10.0 mi SSW 17.3 mph 21.9 mph N/A   Clear
5:57 PM 71.6 °F - 42.8 °F 35% 29.79 in 10.0 mi South 12.7 mph 17.3 mph N/A   Clear
6:17 PM 71.6 °F - 42.8 °F 35% 29.78 in 10.0 mi SSW 15.0 mph 18.4 mph N/A   Clear
6:37 PM 71.6 °F - 41.0 °F 33% 29.77 in 10.0 mi South 12.7 mph - N/A   Clear
6:57 PM 69.8 °F - 41.0 °F 35% 29.77 in 10.0 mi SSW 13.8 mph 18.4 mph N/A   Clear
7:17 PM 69.8 °F - 42.8 °F 38% 29.77 in 10.0 mi SSW 9.2 mph - N/A   Clear
7:37 PM 68.0 °F - 42.8 °F 40% 29.76 in 10.0 mi South 9.2 mph - N/A   Mostly Cloudy
7:57 PM 66.2 °F - 42.8 °F 43% 29.76 in 10.0 mi SSW 8.1 mph - N/A   Overcast
8:17 PM 64.4 °F - 42.8 °F 45% 29.76 in 10.0 mi South 5.8 mph - N/A   Overcast
8:37 PM 64.4 °F - 42.8 °F 45% 29.76 in 10.0 mi South 6.9 mph - N/A   Overcast
8:57 PM 64.4 °F - 42.8 °F 45% 29.76 in 10.0 mi South 5.8 mph - N/A   Overcast
9:17 PM 62.6 °F - 44.6 °F 52% 29.76 in 10.0 mi South 6.9 mph - N/A   Drizzle
9:37 PM 62.6 °F - 44.6 °F 52% 29.75 in 10.0 mi Calm Calm - N/A Rain Light Rain
9:57 PM 64.4 °F - 42.8 °F 45% 29.75 in 10.0 mi North 3.5 mph - N/A   Overcast
10:17 PM 64.4 °F - 44.6 °F 49% 29.75 in 10.0 mi North 5.8 mph - N/A Rain Light Rain
10:37 PM 60.8 °F - 46.4 °F 59% 29.75 in 10.0 mi North 6.9 mph - N/A   Light Drizzle
10:57 PM 59.0 °F - 46.4 °F 63% 29.76 in 10.0 mi NNW 4.6 mph - N/A   Overcast
11:17 PM 59.0 °F - 46.4 °F 63% 29.75 in 10.0 mi Calm Calm - N/A   Overcast
11:37 PM 57.2 °F - 48.2 °F 72% 29.75 in 10.0 mi Calm Calm - N/A Rain Rain
11:57 PM 57.2 °F - 46.4 °F 67% 29.75 in 10.0 mi Calm Calm - N/A Rain Rain